Hourly Data Report for July 13, 2021

FLIN FLON
MANITOBA
Current Station Operator: ECCC - MSC

54°41'00.000" N
101°41'00.000" W
303.90 m
5050919
71954
WFO

Download Data

Hourly Data (July 2021)
Hourly Data Report for July 13, 2021
TIME
LST
Temp Definition
°C
Dew Point Definition
°C
Rel Hum Definition
%
Precip. Amount Definition
mm

Wind Dir Definition
10's deg

Wind Spd Definition
km/h
Visibility Definition
km
Stn Press Definition
kPa
Hmdx Definition


Wind Chill Definition


Weather Definition


00:00 16.0 10.8 71 0.0 27 2   97.95     LegendNANA
01:00 13.6 11.0 84 0.0   0   97.98     LegendNANA
02:00 15.7 12.6 82 0.0 0 1   98.00     LegendNANA
03:00 15.9 13.0 83 0.0 35 3   98.01     LegendNANA
04:00 15.5 12.5 82 0.0 35 5   98.06     LegendNANA
05:00 15.8 11.6 76 0.0 2 6   98.11     LegendNANA
06:00 16.1 11.1 72 0.0 3 4   98.15     LegendNANA
07:00 16.9 11.5 71 0.0 1 8   98.20     LegendNANA
08:00 18.0 11.0 63 0.0 36 10   98.23     LegendNANA
09:00 19.5 10.3 55 0.0 33 6   98.24     LegendNANA
10:00 20.7 9.9 50 0.0 35 10   98.25     LegendNANA
11:00 21.4 8.5 44 0.0 35 12   98.26     LegendNANA
12:00 22.8 8.6 40 0.0 34 12   98.23     LegendNANA
13:00 23.0 8.9 41 0.0 36 15   98.25     LegendNANA
14:00 22.8 8.5 40 0.0 35 15   98.25     LegendNANA
15:00 23.8 8.6 38 0.0 5 8   98.24     LegendNANA
16:00 22.5 9.1 42 0.0 6 7   98.24     LegendNANA
17:00 24.0 7.9 36 0.0 2 4   98.21     LegendNANA
18:00 23.9 8.3 37 0.0 6 7   98.19     LegendNANA
19:00 22.4 9.8 45 0.0 12 2   98.19     LegendNANA
20:00 20.7 11.0 54 0.0   0   98.19     LegendNANA
21:00 20.1 10.9 55 0.0   0   98.18     LegendNANA
22:00 17.8 11.5 67 0.0   0   98.22     LegendNANA
23:00 17.1 11.3 69 0.0   0   98.22     LegendNANA

Notes on Data Quality.

Legend

  • E = Estimated
  • M = Missing
  • NA = Not Available*
  • [empty] = Indicates an unobserved value
Date modified: